Weather History for KCEZ - June, 2013

Change the Weather History Date:

Thursday, June 13, 2013

  Actual Average Record
Temperature  
Mean Temperature 72 °F 64 °F  
Max Temperature 95 °F 84 °F 95 °F (2013)
Min Temperature 48 °F 43 °F 32 °F (2008)
Degree Days  
Heating Degree Days 0 3  
Month to date heating degree days 12 55  
Since 1 June heating degree days 12 55  
Since 1 July heating degree days 6406 6422  
Cooling Degree Days 7 2  
Month to date cooling degree days 38 14  
Year to date cooling degree days 38 19  
Since 1 June cooling degree days 38 14  
Growing Degree Days 20 (Base 50)    
Moisture  
Dew Point 29 °F    
Average Humidity 31    
Maximum Humidity 54    
Minimum Humidity 7    
Precipitation  
Precipitation 0.00 in 0.01 in 0.02 in (2001)
Month to date precipitation T 0.22  
Year to date precipitation 3.33 5.36  
Sea Level Pressure  
Sea Level Pressure 29.89 in    
Wind  
Wind Speed 10 mph (SSW)    
Max Wind Speed 31 mph    
Max Gust Speed 40 mph    
Visibility 10 miles    
Events Thunderstorm    
T = Trace of Precipitation, MM = Missing Value Source: NWS Daily Summary

Daily Weather History Graph

Daily Weather History Graph

Search for Another Location

Airport or City:

Trip Planner

Search our weather history database for the weather conditions in past years. The results will help you decide how hot, cold, wet, or windy it might be!

Date:

Astronomy

Jun. 13, 2013 Rise Set
Actual Time 5:53 AM MDT 8:36 PM MDT
Civil Twilight 5:22 AM MDT 9:07 PM MDT
Nautical Twilight 4:43 AM MDT 9:45 PM MDT
Astronomical Twilight 4:00 AM MDT 10:29 PM MDT
Moon 10:28 AM MDT (6/13) 11:49 PM MDT (6/13)
Length of Visible Light 15h 44m
Length of Day
14h 42m
Waxing Crescent, 22% of the Moon is Illuminated
Jun 13
Waxing Crescent
Jun 16
First Quarter
Jun 23
Full
Jun 29
Last Quarter
Jul 8
New

Hourly Weather History & Observations

Time (MDT) Temp. Dew Point Humidity Pressure Visibility Wind Dir Wind Speed Gust Speed Precip Events Conditions
12:53 AM 55.9 °F 28.9 °F 36% 29.91 in 10.0 mi East 4.6 mph - N/A   Clear
1:53 AM 54.0 °F 30.0 °F 40% 29.91 in 10.0 mi East 5.8 mph - N/A   Clear
2:53 AM 52.0 °F 30.9 °F 45% 29.92 in 10.0 mi Calm Calm - N/A   Clear
3:53 AM 48.9 °F 32.0 °F 52% 29.93 in 10.0 mi ENE 4.6 mph - N/A   Clear
4:53 AM 48.9 °F 32.0 °F 52% 29.94 in 10.0 mi ENE 3.5 mph - N/A   Clear
5:53 AM 53.1 °F 32.0 °F 45% 29.92 in 10.0 mi ENE 6.9 mph - N/A   Clear
6:53 AM 57.0 °F 32.0 °F 39% 29.92 in 10.0 mi Calm Calm - N/A   Clear
7:53 AM 64.0 °F 37.0 °F 37% 29.92 in 10.0 mi SE 3.5 mph - N/A   Clear
8:53 AM 73.9 °F 34.0 °F 23% 29.94 in 10.0 mi Calm Calm - N/A   Clear
9:53 AM 84.0 °F 30.0 °F 14% 29.93 in 10.0 mi SSW 11.5 mph - N/A   Clear
10:53 AM 88.0 °F 30.0 °F 12% 29.93 in 10.0 mi South 13.8 mph - N/A   Clear
11:53 AM 90.0 °F 26.1 °F 10% 29.92 in 10.0 mi SSW 16.1 mph 20.7 mph N/A   Clear
12:53 PM 91.9 °F 21.9 °F 8% 29.89 in 10.0 mi SSW 16.1 mph 23.0 mph N/A   Clear
1:53 PM 93.9 °F 21.9 °F 7% 29.86 in 10.0 mi SW 20.7 mph 28.8 mph N/A   Clear
2:53 PM 91.9 °F 24.1 °F 9% 29.85 in 10.0 mi West 15.0 mph 25.3 mph N/A   Clear
3:53 PM 90.0 °F 25.0 °F 10% 29.85 in 10.0 mi WSW 17.3 mph 23.0 mph N/A   Clear
4:53 PM 89.1 °F 27.0 °F 11% 29.84 in 10.0 mi WSW 16.1 mph 20.7 mph N/A   Clear
5:53 PM 90.0 °F 26.1 °F 10% 29.79 in 10.0 mi WSW 15.0 mph 21.9 mph N/A   Clear
6:53 PM 87.1 °F 27.0 °F 11% 29.77 in 10.0 mi WSW 12.7 mph - N/A   Clear
7:25 PM 86.0 °F 24.8 °F 11% 30.03 in 9.0 mi South 19.6 mph 38.0 mph N/A Thunderstorm Partly Cloudy
7:38 PM 84.2 °F 28.4 °F 13% 30.03 in 10.0 mi West 25.3 mph 33.4 mph N/A   Clear
7:53 PM 84.9 °F 27.0 °F 12% 29.77 in 10.0 mi WSW 13.8 mph 23.0 mph N/A   Clear
8:24 PM 82.4 °F 28.4 °F 14% 30.05 in 9.0 mi West 21.9 mph 33.4 mph N/A Thunderstorm Partly Cloudy
8:39 PM 80.6 °F 30.2 °F 16% 30.07 in 10.0 mi West 12.7 mph 25.3 mph N/A   Scattered Clouds
8:53 PM 80.1 °F 30.0 °F 16% 29.79 in 10.0 mi Variable 4.6 mph - N/A   Partly Cloudy
9:53 PM 79.0 °F 30.0 °F 17% 29.75 in 10.0 mi SSW 8.1 mph - N/A   Clear
10:53 PM 73.9 °F 32.0 °F 21% 29.78 in 10.0 mi SSW 9.2 mph - N/A   Clear
11:53 PM 71.1 °F 32.0 °F 24% 29.78 in 10.0 mi South 6.9 mph - N/A   Clear